Regional Weather Roundup
Issued by NWS Spokane, WA

Home | Current Version | Previous Version | Text Only | Print | Product List | Glossary On
Versions: 1 2 3 4 5 6 7 8 9 10 11 12 13 14 15 16 17 18 19 20 21 22 23 24 25 26 27 28 29 30 31 32 33 34 35 36 37 38 39 40 41 42 43 44 45 46 47 48 49 50
000
NZUS01 KOTX 210610
RWROTX

Eastern Washington/Northern Idaho Roundup
National Weather Service, Spokane WA
1000 PM PST MON FEB 20 2017

Note: "fair" indicated few or no clouds below 12,000 feet with no
significant weather and/or obstructions to visibility.

...Northeast Washington and Northern Idaho Panhandle...

CITY           SKY/WX    TMP DP  RH WIND       PRES   REMARKS
Spokane Intl   CLOUDY    35  33  92 S6        29.71S
Spokane Downto CLOUDY    36  34  92 CALM      29.73S
Coeur d Alene  CLOUDY    36  33  89 S3        29.73R
Deer Park      CLOUDY    34  31  88 SE7       29.72R WCI  28
Sandpoint      CLOUDY    36  34  93 S6        29.71S
Bonners Ferry  CLOUDY    36  32  87 SW8       29.67R

...Southeast Washington and southern Idaho Panhandle...

CITY           SKY/WX    TMP DP  RH WIND       PRES   REMARKS
Walla Walla    CLOUDY    45  38  76 E6        29.69F
Pullman/Moscow MOCLDY    37  33  85 NE3       29.73S
Lewiston       CLOUDY    47  34  60 E5        29.71S
Lowell           N/A     36  33  89 CALM      29.77S
Grangeville    CLOUDY    41  36  81 E3        29.72S

...Columbia Basin...

CITY           SKY/WX    TMP DP  RH WIND       PRES   REMARKS
Ephrata        MOCLDY    29  26  89 NE3       29.70S FOG
Moses Lake     MOCLDY    29  27  92 N6        29.72R WCI  23
Pasco          CLOUDY    39  33  79 N5        29.72S
Richland       CLOUDY    39  37  89 CALM      29.73S
Hermiston      LGT RAIN  44  39  82 SE3       29.70F
Pendleton      CLOUDY    40  38  93 CALM      29.69F

...East Slopes Cascades...

CITY           SKY/WX    TMP DP  RH WIND       PRES   REMARKS
The Dalles     CLOUDY    42  38  85 CALM      29.72R
Yakima         CLOUDY    35  32  88 W7        29.72R WCI  29
Ellensburg     CLOUDY    34  30  85 CALM      29.69R
Wenatchee      CLOUDY    31  30  96 W7        29.71S WCI  24
Omak           CLOUDY    34  31  88 SE5       29.74R WCI  30
Sunnyside        N/A     33  31  92 N3        29.70F

...Southern British Columbia...

CITY           SKY/WX    TMP DP  RH WIND       PRES   REMARKS
Penticton      MOCLDY    36  36 100 S10       29.71R
Osoyoos          N/A     39  36  87 SE7         N/A
Creston          N/A     32  32 100 CALM        N/A

...Western Montana...

CITY           SKY/WX    TMP DP  RH WIND       PRES   REMARKS
Kalispell      PTCLDY    38  31  76 SW3       29.65R
Libby            N/A     43  30  61 E8        29.64R
Missoula       MOCLDY    37  36  96 CALM      29.75R

...Neighboring Cities...

CITY           SKY/WX    TMP DP  RH WIND       PRES   REMARKS
Seattle        CLOUDY    44  42  93 SE5       29.72R
Portland       CLOUDY    42  41  96 E7        29.69F
Boise          LGT RAIN  46  41  82 SE10      29.79R
Great Falls    CLEAR     39  31  72 S15       29.63R
Calgary        CLOUDY    30  27  86 N7        29.56R FOG     WCI  23



USA.gov is the U.S. government's official web portal to all federal, state and local government web resources and services.